NL3D Weather Reports


time (UTC)temp
C
wind
direction
speed
KPH
gust
KPH
rain 1hr
cm
rain 24hr
cm
rain mn
cm
humidity
%
barometer
mb
20260507105629 3 163 4.8 6.4 0.00 0.00 0.00 90 1018.2
20260507105125 3 167 4.8 6.4 0.00 0.00 0.00 91 1018.3
20260507104623 2 166 6.4 8.0 0.00 0.00 0.00 91 1018.3
20260507104119 2 132 4.8 6.4 0.00 0.00 0.00 92 1018.3
20260507103615 2 159 4.8 6.4 0.00 0.00 0.00 93 1018.4
20260507103112 2 162 4.8 4.8 0.00 0.00 0.00 94 1018.5
20260507102608 2 115 4.8 4.8 0.00 0.00 0.00 94 1018.2
20260507102105 2 125 4.8 6.4 0.00 0.00 0.00 94 1018.5
20260507101601 2 111 3.2 6.4 0.00 0.00 0.00 93 1018.5
20260507101056 2 93 3.2 4.8 0.00 0.00 0.00 93 1018.2
20260507100554 2 122 3.2 6.4 0.00 0.00 0.00 92 1018.2
20260507100052 2 137 1.6 6.4 0.00 0.00 0.00 92 1018.3
20260507095550 2 161 4.8 4.8 0.00 0.00 0.00 92 1018.2
20260507095046 2 154 4.8 4.8 0.00 0.00 0.00 93 1018.3
20260507094542 2 116 3.2 4.8 0.00 0.00 0.00 93 1018.1
20260507094039 2 144 4.8 4.8 0.00 0.00 0.00 94 1018.2
20260507093537 2 131 3.2 4.8 0.00 0.00 0.00 95 1018.1
20260507093036 2 94 3.2 4.8 0.00 0.00 0.00 94 1018.2
20260507092531 2 99 4.8 6.4 0.00 0.00 0.00 94 1018.1
20260507092028 2 109 4.8 4.8 0.00 0.00 0.00 94 1018.3
20260507091525 2 116 4.8 6.4 0.00 0.00 0.00 93 1018.3
20260507091021 3 135 3.2 4.8 0.00 0.00 0.00 92 1018.2
20260507090517 3 138 6.4 8.0 0.00 0.00 0.00 92 1018.3
20260507090014 3 144 4.8 8.0 0.00 0.00 0.00 92 1018.0
20260507085511 3 84 3.2 8.0 0.00 0.00 0.00 93 1017.8
20260507085008 3 171 4.8 11.3 0.00 0.00 0.00 93 1018.0
20260507084504 3 169 3.2 9.7 0.00 0.00 0.00 94 1017.8
20260507084002 3 156 6.4 8.0 0.00 0.00 0.00 94 1017.4
20260507083458 3 177 6.4 11.3 0.00 0.00 0.00 94 1017.5
20260507082954 3 198 3.2 6.4 0.00 0.00 0.00 94 1017.5
20260507082451 3 181 3.2 6.4 0.00 0.00 0.00 94 1017.3
20260507081947 3 172 3.2 8.0 0.00 0.00 0.00 94 1017.2
20260507081443 3 132 4.8 8.0 0.05 0.00 0.00 95 1017.6
20260507080940 3 140 4.8 8.0 0.05 0.00 0.00 95 1017.4
20260507080436 3 161 3.2 4.8 0.00 0.00 0.00 95 1017.6
20260507075932 3 155 6.4 8.0 0.00 0.71 0.71 95 1017.7
20260507075428 3 162 6.4 8.0 0.13 0.71 0.71 95 1017.5
20260507074925 3 164 3.2 6.4 0.13 0.69 0.69 95 1017.4
20260507074422 3 195 3.2 9.7 0.18 0.69 0.69 95 1017.4
20260507073920 3 156 6.4 8.0 0.18 0.66 0.66 95 1017.5
20260507073416 3 153 4.8 8.0 0.05 0.66 0.66 95 1017.5
20260507072913 3 172 4.8 6.4 0.05 0.64 0.64 95 1017.2
20260507072410 3 139 3.2 6.4 0.13 0.64 0.64 95 1017.2
20260507071908 3 164 3.2 6.4 0.13 0.64 0.64 95 1017.4
20260507071405 3 144 4.8 6.4 0.18 0.61 0.61 95 1017.3
20260507070901 3 162 3.2 4.8 0.13 0.61 0.61 94 1017.2
20260507070359 3 130 3.2 6.4 0.05 0.58 0.58 94 1017.1
20260507065855 3 144 3.2 6.4 0.05 0.58 0.58 94 1017.2
20260507065352 3 129 4.8 8.0 0.05 0.56 0.56 95 1017.2
20260507064849 3 154 4.8 6.4 0.18 0.56 0.56 95 1017.2
20260507064347 3 134 3.2 4.8 0.30 0.56 0.56 96 1017.0
20260507063845 3 147 3.2 6.4 0.23 0.53 0.53 96 1016.9
20260507063341 3 159 6.4 6.4 0.13 0.51 0.51 96 1017.1
20260507062838 3 180 3.2 6.4 0.13 0.51 0.51 96 1016.8
20260507062335 3 132 3.2 6.4 0.13 0.48 0.48 96 1016.8
20260507061833 3 120 3.2 4.8 0.05 0.48 0.48 96 1016.8
20260507061331 3 123 3.2 4.8 0.00 0.46 0.46 96 1016.7
20260507060829 3 103 3.2 3.2 0.05 0.46 0.46 96 1016.7
20260507060325 3 103 3.2 4.8 0.00 0.46 0.46 96 1016.9
20260507055822 3 96 3.2 4.8 0.00 0.46 0.46 96 1016.8
20260507055317 3 133 4.8 4.8 0.05 0.46 0.46 96 1016.7
20260507054814 3 145 3.2 3.2 0.13 0.46 0.46 96 1016.5
20260507054310 3 141 3.2 4.8 0.05 0.43 0.43 96 1016.2
20260507053808 3 121 4.8 4.8 0.13 0.43 0.43 96 1016.6
20260507053306 3 112 3.2 4.8 0.13 0.43 0.43 96 1016.3
20260507052805 3 138 4.8 6.4 0.13 0.43 0.43 96 1016.5
20260507052300 3 107 3.2 3.2 0.05 0.41 0.41 96 1016.4
20260507051759 3 96 3.2 4.8 0.05 0.41 0.41 95 1016.4
20260507051255 3 103 3.2 3.2 0.05 0.41 0.41 95 1016.5
20260507050752 3 92 3.2 3.2 0.00 0.38 0.38 95 1016.5
20260507050249 3 105 3.2 3.2 0.00 0.38 0.38 95 1016.4
20260507045746 3 122 3.2 3.2 0.00 0.38 0.38 95 1016.3
20260507045241 3 110 0.0 3.2 0.00 0.38 0.38 94 1016.3
20260507044739 3 115 0.0 4.8 0.05 0.38 0.38 93 1016.3
20260507044235 3 106 3.2 4.8 0.05 0.38 0.38 94 1016.3
20260507043731 3 63 6.4 8.0 0.05 0.38 0.38 94 1016.2
20260507043229 3 94 3.2 4.8 0.30 0.38 0.38 93 1016.5
20260507042725 3 97 3.2 6.4 0.36 0.36 0.36 93 1016.5
20260507042220 3 125 4.8 8.0 0.43 0.33 0.33 93 1016.4
20260507041718 4 158 4.8 6.4 0.30 0.28 0.28 92 1016.5
20260507041214 4 179 3.2 11.3 0.36 0.25 0.25 92 1016.4
20260507040711 4 156 6.4 8.0 0.36 0.18 0.18 91 1016.1
20260507040207 5 170 6.4 9.7 0.18 0.15 0.15 90 1016.1
20260507035703 5 160 4.8 11.3 0.05 0.13 0.13 88 1016.1
20260507035159 5 242 1.6 11.3 0.13 0.13 0.13 85 1015.9
20260507034656 5 200 4.8 8.0 0.05 0.10 0.10 87 1015.8
20260507034153 6 203 4.8 12.9 0.00 0.10 0.10 86 1015.7
20260507033652 6 153 3.2 4.8 0.00 0.10 0.10 89 1015.7
20260507033149 6 156 1.6 3.2 0.00 0.10 0.10 89 1015.4
20260507032646 6 126 0.0 3.2 0.05 0.10 0.10 85 1015.5
20260507032142 6 119 1.6 3.2 0.00 0.10 0.10 86 1015.2
20260507031639 6 128 3.2 3.2 0.00 0.10 0.10 84 1015.2
20260507031135 6 129 3.2 4.8 0.05 0.10 0.10 83 1015.4
20260507030632 6 111 3.2 4.8 0.13 0.10 0.10 87 1015.4
20260507030130 6 110 3.2 4.8 0.13 0.08 0.08 88 1015.2
20260507025627 6 141 3.2 4.8 0.05 0.05 0.05 85 1015.5
20260507025124 6 123 3.2 4.8 0.13 0.05 0.05 86 1015.3
20260507024622 6 144 4.8 4.8 0.13 0.05 0.05 82 1015.3
20260507024119 6 173 3.2 8.0 0.13 0.03 0.03 76 1015.0
20260507023614 7 160 3.2 4.8 0.13 0.03 0.03 77 1015.2
20260507023112 7 99 3.2 6.4 0.05 0.00 0.00 75 1015.2
20260507022609 7 174 4.8 4.8 0.00 0.00 0.00 69 1015.1
20260507022104 7 151 0.0 3.2 0.00 0.00 0.00 69 1015.0
20260507021601 7 131 3.2 4.8 0.00 0.00 0.00 72 1014.9
20260507021056 7 139 0.0 3.2 0.00 0.00 0.00 72 1015.0
20260507020555 7 113 3.2 6.4 0.00 0.00 0.00 70 1015.0
20260507020051 7 114 3.2 4.8 0.00 0.00 0.00 73 1015.0
20260507015550 7 115 0.0 3.2 0.00 0.00 0.00 74 1014.9
20260507015047 7 119 3.2 4.8 0.00 0.00 0.00 76 1014.9
20260507014543 7 124 1.6 3.2 0.00 0.00 0.00 75 1014.7
20260507014039 7 151 4.8 6.4 0.00 0.00 0.00 77 1014.9
20260507013536 7 108 1.6 3.2 0.00 0.00 0.00 79 1014.9
20260507013033 7 138 4.8 6.4 0.00 0.00 0.00 77 1014.9
20260507012530 7 154 1.6 6.4 0.00 0.00 0.00 77 1015.0
20260507012026 7 194 4.8 6.4 0.00 0.00 0.00 73 1014.9
20260507011524 7 142 3.2 4.8 0.00 0.00 0.00 73 1014.9
20260507011020 7 140 3.2 8.0 0.00 0.00 0.00 72 1014.9
20260507010514 7 108 3.2 6.4 0.00 0.00 0.00 71 1015.0
20260507010011 7 147 1.6 6.4 0.00 0.00 0.00 72 1014.8
20260507005509 7 184 3.2 6.4 0.00 0.00 0.00 74 1015.1
20260507005005 7 156 4.8 6.4 0.00 0.00 0.00 73 1014.8
20260507004502 7 150 1.6 6.4 0.00 0.00 0.00 72 1014.8
20260507003959 7 173 3.2 4.8 0.00 0.00 0.00 73 1014.9
20260507003454 7 112 0.0 6.4 0.00 0.00 0.00 72 1014.8
20260507002949 7 104 1.6 6.4 0.00 0.00 0.00 71 1014.9
20260507002447 7 163 3.2 6.4 0.00 0.00 0.00 71 1014.8
20260507001943 7 166 0.0 4.8 0.00 0.00 0.00 71 1014.6
20260507001440 7 135 4.8 6.4 0.00 0.00 0.00 72 1014.8
20260507000937 7 110 3.2 8.0 0.00 0.00 0.00 72 1014.7
20260507000435 7 169 0.0 4.8 0.00 0.00 0.00 71 1014.6
20260506235928 7 153 4.8 8.0 0.00 0.00 0.00 71 1014.5
20260506235426 8 165 1.6 6.4 0.00 0.00 0.00 69 1014.6
20260506234921 8 151 4.8 9.7 0.00 0.00 0.00 69 1014.7
20260506234420 8 311 0.0 6.4 0.00 0.00 0.00 69 1014.5
20260506233917 8 110 3.2 4.8 0.00 0.00 0.00 67 1014.6
20260506233413 8 152 4.8 6.4 0.00 0.00 0.00 67 1014.6
20260506232910 8 96 3.2 4.8 0.00 0.00 0.00 70 1014.4
20260506232406 8 224 0.0 4.8 0.00 0.00 0.00 71 1014.3
20260506231902 8 193 3.2 6.4 0.00 0.00 0.00 69 1014.5
20260506231400 8 171 3.2 9.7 0.00 0.00 0.00 68 1014.5
20260506230857 8 107 3.2 8.0 0.00 0.00 0.00 66 1014.4
20260506230354 8 160 3.2 4.8 0.00 0.00 0.00 66 1014.2
20260506225849 8 119 6.4 6.4 0.00 0.00 0.00 65 1014.2
20260506225347 8 168 8.0 11.3 0.00 0.00 0.00 64 1014.3
20260506224839 8 125 3.2 9.7 0.00 0.00 0.00 63 1014.4
20260506224336 7 206 4.8 8.0 0.00 0.00 0.00 65 1014.2
20260506223832 7 178 9.7 9.7 0.00 0.00 0.00 66 1014.1
20260506223327 7 163 8.0 8.0 0.00 0.00 0.00 65 1014.1
20260506222825 7 180 3.2 9.7 0.00 0.00 0.00 65 1014.1
20260506222320 7 303 1.6 8.0 0.00 0.00 0.00 66 1014.3
20260506221818 7 149 4.8 11.3 0.00 0.00 0.00 66 1014.1
20260506221315 7 181 6.4 6.4 0.00 0.00 0.00 65 1013.9
20260506220814 7 196 6.4 9.7 0.00 0.00 0.00 65 1014.1
20260506220313 7 204 8.0 11.3 0.00 0.00 0.00 62 1014.0
20260506215810 7 184 4.8 9.7 0.00 0.00 0.00 62 1014.0
20260506215306 9 228 6.4 9.7 0.00 0.00 0.00 60 1013.8
20260506214802 9 58 3.2 3.2 0.00 0.00 0.00 60 1013.6
20260506214259 9 109 0.0 4.8 0.00 0.00 0.00 60 1013.7
20260506213758 9 24 3.2 4.8 0.00 0.00 0.00 61 1013.7
20260506213254 9 36 3.2 6.4 0.00 0.00 0.00 60 1013.8
20260506212752 9 43 3.2 3.2 0.00 0.00 0.00 60 1013.6
20260506212247 9 46 4.8 4.8 0.00 0.00 0.00 61 1013.6
20260506211743 9 123 1.6 3.2 0.00 0.00 0.00 62 1013.7
20260506211239 9 154 0.0 4.8 0.00 0.00 0.00 62 1013.6
20260506210736 9 115 3.2 4.8 0.00 0.00 0.00 63 1013.6
20260506210233 9 77 1.6 6.4 0.00 0.00 0.00 61 1013.5
20260506205730 9 135 3.2 6.4 0.00 0.00 0.00 63 1013.4
20260506205226 8 113 3.2 6.4 0.00 0.00 0.00 63 1013.3
20260506204723 9 62 4.8 9.7 0.00 0.00 0.00 62 1013.3
20260506204220 8 51 1.6 4.8 0.00 0.00 0.00 64 1013.2
20260506203718 8 94 4.8 6.4 0.00 0.00 0.00 64 1013.2
20260506203215 8 43 4.8 9.7 0.00 0.00 0.00 64 1013.5
20260506202713 8 24 8.0 8.0 0.00 0.00 0.00 65 1013.3
20260506202209 9 16 4.8 4.8 0.00 0.00 0.00 63 1013.3
20260506201706 9 31 0.0 6.4 0.00 0.00 0.00 62 1013.2
20260506201203 9 99 0.0 6.4 0.00 0.00 0.00 64 1013.1
20260506200659 8 46 4.8 11.3 0.00 0.00 0.00 65 1013.2
20260506200156 9 21 8.0 9.7 0.00 0.00 0.00 63 1013.1
20260506195653 8 268 0.0 9.7 0.00 0.00 0.00 63 1013.0
20260506195149 8 63 6.4 6.4 0.00 0.00 0.00 66 1013.0
20260506194647 8 217 3.2 6.4 0.00 0.00 0.00 67 1013.3
20260506194142 8 22 8.0 8.0 0.00 0.00 0.00 66 1013.0
20260506193641 8 269 0.0 9.7 0.00 0.00 0.00 66 1012.9
20260506193137 8 128 1.6 4.8 0.00 0.00 0.00 65 1013.0
20260506192634 8 87 3.2 6.4 0.00 0.00 0.00 67 1012.9
20260506192130 7 1 4.8 8.0 0.00 0.00 0.00 67 1013.1
20260506191627 8 109 0.0 6.4 0.00 0.00 0.00 67 1013.1
20260506191123 8 164 0.0 6.4 0.00 0.00 0.00 66 1013.1
20260506190621 8 81 4.8 4.8 0.00 0.00 0.00 65 1013.0
20260506190118 7 86 3.2 6.4 0.00 0.00 0.00 64 1013.1
20260506185615 8 87 4.8 9.7 0.00 0.00 0.00 64 1012.8
20260506185110 7 85 3.2 4.8 0.00 0.00 0.00 66 1012.9
20260506184608 7 75 0.0 6.4 0.00 0.00 0.00 66 1013.0
20260506184106 7 35 3.2 3.2 0.00 0.00 0.00 68 1013.0
20260506183601 7 110 4.8 4.8 0.00 0.00 0.00 68 1012.9
20260506183058 6 119 3.2 6.4 0.00 0.00 0.00 69 1013.0
20260506182555 6 130 4.8 8.0 0.00 0.00 0.00 70 1012.8
20260506182052 6 147 4.8 4.8 0.00 0.00 0.00 69 1012.9
20260506181551 6 92 4.8 4.8 0.00 0.00 0.00 69 1012.8
20260506181047 6 178 0.0 6.4 0.00 0.00 0.00 71 1012.7
20260506180543 6 80 3.2 3.2 0.00 0.00 0.00 71 1012.7
20260506180040 6 55 1.6 3.2 0.00 0.00 0.00 70 1012.6
20260506175536 6 60 0.0 4.8 0.00 0.00 0.00 71 1012.6
20260506175033 6 42 3.2 9.7 0.00 0.00 0.00 71 1012.6
20260506174532 6 8 3.2 6.4 0.00 0.00 0.00 71 1012.7
20260506174027 6 80 1.6 6.4 0.00 0.00 0.00 72 1012.6
20260506173526 6 323 0.0 3.2 0.00 0.00 0.00 71 1012.7
20260506173022 6 26 1.6 4.8 0.00 0.00 0.00 71 1012.7
20260506172520 6 75 3.2 4.8 0.00 0.00 0.00 71 1012.5
20260506172015 6 69 4.8 6.4 0.00 0.00 0.00 72 1012.5
20260506171513 6 55 3.2 4.8 0.00 0.00 0.00 72 1012.5
20260506171011 5 70 3.2 4.8 0.00 0.00 0.00 73 1012.6
20260506170508 5 86 1.6 3.2 0.00 0.00 0.00 73 1012.5
20260506170006 5 87 3.2 3.2 0.00 0.00 0.00 73 1012.3
20260506165504 5 51 3.2 4.8 0.00 0.00 0.00 73 1012.4
20260506164959 5 81 3.2 4.8 0.00 0.00 0.00 73 1012.4
20260506164456 5 49 4.8 4.8 0.00 0.00 0.00 74 1012.5
20260506163954 5 96 3.2 3.2 0.00 0.00 0.00 74 1012.5
20260506163449 5 104 3.2 3.2 0.00 0.00 0.00 75 1012.1
20260506162944 5 112 3.2 4.8 0.00 0.00 0.00 76 1012.4
20260506162442 4 116 3.2 4.8 0.00 0.00 0.00 77 1012.2
20260506161939 4 146 3.2 4.8 0.00 0.00 0.00 77 1012.0
20260506161437 4 123 4.8 4.8 0.00 0.00 0.00 77 1012.1
20260506160934 4 124 3.2 4.8 0.00 0.00 0.00 77 1012.0
20260506160432 4 77 3.2 3.2 0.00 0.00 0.00 77 1012.1
20260506155929 3 135 3.2 4.8 0.00 0.00 0.00 78 1012.2
20260506155426 3 116 3.2 4.8 0.00 0.00 0.00 79 1012.0
20260506153548 3 99 3.2 4.8 0.00 0.00 0.00 81 1012.0
20260506153045 3 109 3.2 4.8 0.00 0.00 0.00 81 1012.0
20260506152542 3 89 3.2 4.8 0.00 0.00 0.00 81 1011.8
20260506152040 3 123 3.2 4.8 0.00 0.00 0.00 80 1012.0
20260506151538 3 123 3.2 4.8 0.00 0.00 0.00 80 1011.9
20260506151035 3 106 3.2 3.2 0.00 0.00 0.00 79 1011.9
20260506150531 3 83 3.2 4.8 0.00 0.00 0.00 80 1011.8
20260506150028 3 117 3.2 6.4 0.00 0.00 0.00 79 1011.7
20260506145525 3 38 1.6 3.2 0.00 0.00 0.00 78 1011.7
20260506145023 3 98 3.2 4.8 0.00 0.00 0.00 77 1011.5
20260506144519 3 96 3.2 4.8 0.00 0.00 0.00 76 1011.7
20260506144017 3 57 3.2 4.8 0.00 0.00 0.00 77 1011.7
20260506143514 3 57 3.2 4.8 0.00 0.00 0.00 77 1011.7
20260506143013 3 120 3.2 4.8 0.00 0.00 0.00 77 1011.6
20260506142510 3 68 3.2 6.4 0.00 0.00 0.00 77 1011.5
20260506142008 3 86 3.2 6.4 0.00 0.00 0.00 77 1011.6
20260506141505 3 97 0.0 6.4 0.00 0.00 0.00 77 1011.6
20260506141003 3 82 3.2 6.4 0.00 0.00 0.00 77 1011.5
20260506140500 3 41 3.2 6.4 0.00 0.00 0.00 78 1011.6
20260506135957 3 81 4.8 6.4 0.00 0.00 0.00 78 1011.6
20260506135454 3 77 3.2 4.8 0.00 0.00 0.00 80 1011.7
20260506134950 2 77 3.2 6.4 0.00 0.00 0.00 81 1011.5
20260506134446 2 107 3.2 3.2 0.00 0.00 0.00 81 1011.4
20260506133943 2 96 4.8 4.8 0.00 0.00 0.00 82 1011.6
20260506133440 2 100 3.2 4.8 0.00 0.00 0.00 81 1011.5
20260506132937 2 95 3.2 4.8 0.00 0.00 0.00 80 1011.5
20260506132434 2 87 3.2 4.8 0.00 0.00 0.00 80 1011.4
20260506131932 2 76 4.8 6.4 0.00 0.00 0.00 81 1011.5
20260506131428 2 82 3.2 4.8 0.00 0.00 0.00 82 1011.5
20260506130925 2 91 3.2 3.2 0.00 0.00 0.00 82 1011.2
20260506130421 2 118 3.2 4.8 0.00 0.00 0.00 82 1011.5
20260506125919 2 94 3.2 4.8 0.00 0.00 0.00 81 1011.6
20260506125418 2 103 4.8 4.8 0.00 0.00 0.00 81 1011.2
20260506124915 2 111 3.2 6.4 0.00 0.00 0.00 81 1011.3
20260506124413 3 124 3.2 4.8 0.00 0.00 0.00 80 1011.2
20260506123910 3 124 3.2 4.8 0.00 0.00 0.00 78 1011.2
20260506123408 3 89 1.6 4.8 0.00 0.00 0.00 75 1011.3
20260506122906 3 74 6.4 8.0 0.00 0.00 0.00 76 1011.3
20260506122402 2 71 4.8 6.4 0.00 0.00 0.00 80 1011.3
20260506121900 2 93 3.2 4.8 0.00 0.00 0.00 81 1011.2
20260506121357 2 106 3.2 4.8 0.00 0.00 0.00 81 1011.2
20260506120854 2 93 3.2 6.4 0.00 0.00 0.00 81 1011.2
20260506120352 2 113 4.8 4.8 0.00 0.00 0.00 81 1011.2
20260506115849 2 83 4.8 6.4 0.00 0.00 0.00 81 1011.0
20260506115347 2 92 3.2 3.2 0.00 0.00 0.00 80 1011.1
20260506114845 3 99 3.2 4.8 0.00 0.00 0.00 81 1011.3
20260506114342 3 91 3.2 6.4 0.00 0.00 0.00 79 1011.0
20260506113841 3 124 3.2 4.8 0.00 0.00 0.00 79 1011.2
20260506113338 3 78 3.2 4.8 0.00 0.00 0.00 78 1010.8
20260506112834 3 110 3.2 4.8 0.00 0.00 0.00 78 1011.1
20260506112331 3 96 4.8 4.8 0.00 0.00 0.00 78 1011.1
20260506111829 3 122 3.2 3.2 0.00 0.00 0.00 77 1011.1
20260506111327 3 85 3.2 4.8 0.00 0.00 0.00 77 1010.8
20260506110824 3 86 3.2 4.8 0.00 0.00 0.00 76 1011.2
20260506110321 3 130 1.6 3.2 0.00 0.00 0.00 76 1011.1